�������l�o���
Date,Time,MP-1(��Sv/h),MP-2(��Sv/h),MP-3(��Sv/h),MP-4(��Sv/h),MP-5(��Sv/h),MP-6(��Sv/h),MP-7(��Sv/h),����,����(m/s),���J
2018/02/07,00:00,0.335,0.203,0.333,0.318,0.302,0.168,0.101,��,9.6,��
2018/02/07,00:10,0.335,0.203,0.334,0.317,0.300,0.168,0.101,��,10.1,��
2018/02/07,00:20,0.335,0.204,0.335,0.317,0.302,0.168,0.101,��,11.4,��
2018/02/07,00:30,0.336,0.203,0.334,0.315,0.302,0.168,0.101,��,7.8,��
2018/02/07,00:40,0.334,0.202,0.334,0.317,0.302,0.168,0.100,��,5.4,��
2018/02/07,00:50,0.335,0.202,0.335,0.317,0.301,0.168,0.100,��,7.8,��
2018/02/07,01:00,0.335,0.202,0.333,0.317,0.302,0.168,0.100,��,10.6,��
2018/02/07,01:10,0.335,0.204,0.334,0.316,0.301,0.168,0.101,��,12.3,��
2018/02/07,01:20,0.335,0.202,0.334,0.317,0.302,0.168,0.101,��,10.6,��
2018/02/07,01:30,0.335,0.203,0.335,0.317,0.301,0.168,0.102,��,10.4,��
2018/02/07,01:40,0.336,0.203,0.335,0.317,0.303,0.167,0.101,��,8.2,��
2018/02/07,01:50,0.336,0.203,0.334,0.317,0.301,0.169,0.101,���쐼,6.8,��
2018/02/07,02:00,0.335,0.203,0.335,0.316,0.303,0.167,0.100,��,7.0,��
2018/02/07,02:10,0.334,0.204,0.334,0.318,0.302,0.168,0.100,��,7.0,��
2018/02/07,02:20,0.335,0.203,0.334,0.317,0.302,0.169,0.100,��,8.8,��
2018/02/07,02:30,0.335,0.204,0.335,0.317,0.302,0.168,0.100,���쐼,11.7,��
2018/02/07,02:40,0.336,0.204,0.334,0.317,0.302,0.169,0.101,��,5.2,��
2018/02/07,02:50,0.337,0.204,0.335,0.316,0.303,0.168,0.101,���k��,5.2,��
2018/02/07,03:00,0.336,0.203,0.334,0.316,0.301,0.167,0.100,��,3.5,��
2018/02/07,03:10,0.334,0.204,0.334,0.317,0.302,0.168,0.101,��,5.5,��
2018/02/07,03:20,0.335,0.204,0.335,0.317,0.302,0.168,0.101,�쐼,3.8,��
2018/02/07,03:30,0.335,0.204,0.335,0.318,0.301,0.168,0.100,���쐼,4.7,��
2018/02/07,03:40,0.336,0.204,0.335,0.318,0.302,0.168,0.100,��쐼,3.9,��
2018/02/07,03:50,0.335,0.205,0.334,0.317,0.302,0.168,0.101,��,2.4,��
2018/02/07,04:00,0.336,0.204,0.332,0.317,0.302,0.168,0.101,��,5.1,��
2018/02/07,04:10,0.335,0.203,0.333,0.317,0.302,0.168,0.102,���쐼,8.1,��
2018/02/07,04:20,0.334,0.203,0.334,0.317,0.301,0.168,0.101,��,3.5,��
2018/02/07,04:30,0.335,0.202,0.335,0.319,0.301,0.167,0.100,���k��,4.2,��
2018/02/07,04:40,0.336,0.203,0.334,0.318,0.302,0.168,0.101,���k��,3.6,��
2018/02/07,04:50,0.335,0.203,0.335,0.317,0.302,0.168,0.100,�k��,2.6,��
2018/02/07,05:00,0.336,0.204,0.333,0.319,0.301,0.168,0.101,��,4.0,��
2018/02/07,05:10,0.336,0.203,0.335,0.317,0.302,0.169,0.101,��,4.7,��
2018/02/07,05:20,0.335,0.203,0.333,0.317,0.300,0.169,0.101,��,7.0,��
2018/02/07,05:30,0.335,0.203,0.334,0.318,0.302,0.168,0.101,��,2.1,��
2018/02/07,05:40,0.335,0.203,0.334,0.318,0.301,0.168,0.102,���쐼,3.6,��
2018/02/07,05:50,0.336,0.204,0.335,0.317,0.301,0.168,0.101,-,CALM,��
2018/02/07,06:00,0.334,0.204,0.334,0.318,0.302,0.168,0.100,��쓌,3.9,��
2018/02/07,06:10,0.336,0.203,0.333,0.316,0.303,0.167,0.101,��쓌,2.5,��
2018/02/07,06:20,0.335,0.203,0.333,0.316,0.301,0.168,0.102,-,CALM,��
2018/02/07,06:30,0.334,0.203,0.334,0.317,0.301,0.167,0.101,�쐼,1.2,��
2018/02/07,06:40,0.335,0.203,0.335,0.317,0.301,0.168,0.101,��,3.2,��
2018/02/07,06:50,0.335,0.203,0.334,0.318,0.299,0.168,0.101,���k��,2.7,��
2018/02/07,07:00,0.334,0.203,0.334,0.317,0.299,0.168,0.101,�k��,1.1,��
2018/02/07,07:10,0.335,0.202,0.334,0.316,0.301,0.167,0.100,��,1.0,��
2018/02/07,07:20,0.335,0.203,0.332,0.316,0.301,0.168,0.101,�k��,2.0,��
2018/02/07,07:30,0.334,0.203,0.334,0.317,0.300,0.167,0.100,��,3.3,��
2018/02/07,07:40,0.336,0.204,0.334,0.317,0.300,0.167,0.101,���k��,4.0,��
2018/02/07,07:50,0.334,0.204,0.334,0.316,0.300,0.168,0.101,���k��,3.9,��
2018/02/07,08:00,0.336,0.203,0.333,0.316,0.301,0.168,0.101,��,4.7,��
2018/02/07,08:10,0.334,0.202,0.334,0.316,0.301,0.167,0.100,���k��,3.1,��
2018/02/07,08:20,0.334,0.201,0.334,0.317,0.301,0.167,0.100,���k��,3.4,��
2018/02/07,08:30,0.336,0.203,0.334,0.318,0.299,0.168,0.101,��,4.9,��
2018/02/07,08:40,0.335,0.203,0.334,0.315,0.300,0.167,0.100,���k��,4.3,��
2018/02/07,08:50,0.334,0.203,0.333,0.317,0.302,0.168,0.101,��,6.0,��
2018/02/07,09:00,0.336,0.203,0.332,0.318,0.301,0.168,0.101,��,6.9,��
2018/02/07,09:10,0.335,0.203,0.332,0.317,0.301,0.167,0.100,���k��,8.4,��
2018/02/07,09:20,0.335,0.202,0.332,0.317,0.300,0.167,0.101,���k��,7.6,��
2018/02/07,09:30,0.335,0.203,0.335,0.317,0.301,0.167,0.100,���k��,6.8,��
2018/02/07,09:40,0.334,0.204,0.335,0.318,0.302,0.167,0.100,���k��,7.7,��
2018/02/07,09:50,0.334,0.204,0.335,0.317,0.302,0.167,0.100,���k��,7.6,��
2018/02/07,10:00,0.335,0.202,0.334,0.317,0.301,0.167,0.100,��,9.2,��
2018/02/07,10:10,0.334,0.204,0.334,0.318,0.301,0.168,0.100,���k��,6.3,��
2018/02/07,10:20,0.334,0.204,0.335,0.317,0.302,0.168,0.100,���k��,7.5,��
2018/02/07,10:30,0.337,0.203,0.335,0.318,0.304,0.168,0.101,��,7.7,��
2018/02/07,10:40,0.336,0.205,0.335,0.318,0.304,0.169,0.100,��,6.5,��
2018/02/07,10:50,0.336,0.204,0.335,0.319,0.303,0.168,0.101,�k��,5.7,��
2018/02/07,11:00,0.335,0.203,0.334,0.317,0.304,0.167,0.101,�k��,5.5,��
2018/02/07,11:10,0.334,0.203,0.336,0.318,0.303,0.168,0.101,�k��,5.5,��
2018/02/07,11:20,0.336,0.205,0.335,0.317,0.301,0.167,0.100,�k��,6.0,��
2018/02/07,11:30,0.336,0.203,0.334,0.315,0.302,0.168,0.100,���k��,5.5,��
2018/02/07,11:40,0.333,0.204,0.334,0.316,0.300,0.168,0.100,���k��,5.1,��
2018/02/07,11:50,0.334,0.203,0.335,0.316,0.303,0.169,0.099,��,4.4,��
2018/02/07,12:00,0.334,0.203,0.332,0.317,0.304,0.168,0.101,�k��,3.0,��
2018/02/07,12:10,0.335,0.203,0.335,0.316,0.302,0.169,0.100,�k�k��,4.6,��
2018/02/07,12:20,0.336,0.204,0.333,0.316,0.304,0.168,0.100,�k�k��,4.2,��
2018/02/07,12:30,0.333,0.204,0.334,0.318,0.302,0.167,0.100,�k��,3.9,��
2018/02/07,12:40,0.335,0.203,0.333,0.316,0.304,0.168,0.100,�k��,4.2,��
2018/02/07,12:50,0.335,0.204,0.334,0.317,0.302,0.169,0.101,���k��,3.0,��
2018/02/07,13:00,0.336,0.204,0.333,0.318,0.302,0.168,0.100,�k�k��,5.5,��
2018/02/07,13:10,0.335,0.203,0.335,0.315,0.303,0.167,0.101,�k�k��,4.2,��
2018/02/07,13:20,0.335,0.204,0.333,0.317,0.302,0.167,0.100,���k��,4.3,��
2018/02/07,13:30,0.336,0.203,0.333,0.316,0.302,0.167,0.100,�k�k��,3.4,��
2018/02/07,13:40,0.336,0.204,0.333,0.315,0.304,0.167,0.101,�k��,2.9,��
2018/02/07,13:50,0.336,0.205,0.334,0.318,0.302,0.168,0.100,���k��,5.3,��
2018/02/07,14:00,0.337,0.204,0.333,0.316,0.305,0.168,0.101,���k��,3.7,��
2018/02/07,14:10,0.335,0.204,0.333,0.318,0.301,0.167,0.100,�k��,4.1,��
2018/02/07,14:20,0.336,0.204,0.334,0.317,0.302,0.167,0.100,�k�k��,4.0,��
2018/02/07,14:30,0.336,0.203,0.333,0.317,0.304,0.167,0.100,�k��,2.8,��
2018/02/07,14:40,0.335,0.203,0.336,0.317,0.301,0.168,0.101,��,2.6,��
2018/02/07,14:50,0.336,0.204,0.336,0.317,0.304,0.166,0.102,�k��,3.6,��
2018/02/07,15:00,0.336,0.204,0.334,0.317,0.303,0.168,0.101,�k�k��,3.4,��
2018/02/07,15:10,0.335,0.203,0.335,0.319,0.304,0.167,0.101,�k��,2.2,��
2018/02/07,15:20,0.335,0.204,0.335,0.318,0.303,0.167,0.100,�k,2.4,��
2018/02/07,15:30,0.337,0.204,0.335,0.318,0.303,0.168,0.101,�k,2.2,��
2018/02/07,15:40,0.336,0.204,0.335,0.319,0.303,0.168,0.101,�k,2.4,��
2018/02/07,15:50,0.336,0.202,0.335,0.317,0.303,0.168,0.101,���k��,3.6,��
2018/02/07,16:00,0.336,0.204,0.334,0.318,0.303,0.168,0.100,���k��,2.6,��
2018/02/07,16:10,0.337,0.204,0.334,0.318,0.301,0.168,0.101,���k��,2.6,��
2018/02/07,16:20,0.337,0.205,0.333,0.319,0.303,0.168,0.101,�k��,2.2,��
2018/02/07,16:30,0.335,0.203,0.336,0.317,0.303,0.168,0.101,���k��,1.7,��
2018/02/07,16:40,0.336,0.204,0.336,0.317,0.302,0.169,0.101,�k��,1.0,��
2018/02/07,16:50,0.336,0.205,0.333,0.317,0.302,0.168,0.101,�k��,0.9,��
2018/02/07,17:00,0.337,0.204,0.335,0.318,0.302,0.169,0.101,�k,1.5,��
2018/02/07,17:10,0.336,0.203,0.335,0.318,0.302,0.169,0.102,���k��,1.4,��
2018/02/07,17:20,0.337,0.203,0.335,0.319,0.304,0.168,0.101,�k��,2.2,��
2018/02/07,17:30,0.335,0.204,0.336,0.319,0.302,0.169,0.100,���k��,2.4,��
2018/02/07,17:40,0.336,0.205,0.333,0.319,0.301,0.168,0.101,���k��,1.8,��
2018/02/07,17:50,0.337,0.204,0.333,0.319,0.302,0.168,0.101,���k��,2.6,��
2018/02/07,18:00,0.336,0.204,0.334,0.318,0.302,0.168,0.100,���k��,1.9,��
2018/02/07,18:10,0.336,0.203,0.335,0.318,0.301,0.168,0.101,���k��,2.9,��
2018/02/07,18:20,0.336,0.204,0.335,0.317,0.302,0.169,0.100,�k�k��,1.3,��
2018/02/07,18:30,0.335,0.204,0.334,0.318,0.302,0.168,0.100,���k��,1.3,��
2018/02/07,18:40,0.338,0.204,0.335,0.317,0.302,0.168,0.101,���k��,1.6,��
2018/02/07,18:50,0.335,0.204,0.334,0.317,0.303,0.168,0.100,���k��,0.9,��
2018/02/07,19:00,0.335,0.204,0.335,0.318,0.302,0.168,0.101,���k��,1.5,��
2018/02/07,19:10,0.337,0.203,0.335,0.317,0.300,0.169,0.100,-,CALM,��
2018/02/07,19:20,0.336,0.204,0.334,0.318,0.301,0.168,0.100,-,CALM,��
2018/02/07,19:30,0.337,0.204,0.333,0.317,0.301,0.168,0.101,�k�k��,0.7,��
2018/02/07,19:40,0.337,0.204,0.335,0.318,0.301,0.168,0.100,��,1.0,��
2018/02/07,19:50,0.337,0.204,0.333,0.318,0.301,0.168,0.101,���k��,4.1,��
2018/02/07,20:00,0.335,0.203,0.336,0.318,0.301,0.168,0.101,�k��,5.8,��
2018/02/07,20:10,0.336,0.203,0.335,0.317,0.300,0.168,0.101,���k��,4.7,��
2018/02/07,20:20,0.336,0.204,0.334,0.318,0.302,0.168,0.101,�k��,2.9,��
2018/02/07,20:30,0.337,0.203,0.334,0.318,0.302,0.168,0.101,�k��,2.5,��
2018/02/07,20:40,0.336,0.203,0.334,0.317,0.301,0.167,0.100,�k�k��,3.9,��
2018/02/07,20:50,0.335,0.204,0.335,0.317,0.301,0.168,0.100,���k��,5.8,��
2018/02/07,21:00,0.336,0.203,0.335,0.317,0.301,0.168,0.100,���k��,4.7,��
2018/02/07,21:10,0.336,0.203,0.333,0.317,0.302,0.167,0.100,���k��,5.2,��
2018/02/07,21:20,0.336,0.203,0.333,0.317,0.301,0.169,0.100,���k��,4.8,��
2018/02/07,21:30,0.339,0.202,0.334,0.318,0.301,0.168,0.100,�k��,5.3,��
2018/02/07,21:40,0.337,0.204,0.334,0.318,0.301,0.168,0.100,�k��,5.6,��
2018/02/07,21:50,0.337,0.204,0.335,0.317,0.300,0.168,0.100,�k��,5.3,��
2018/02/07,22:00,0.335,0.203,0.335,0.318,0.301,0.167,0.100,���k��,4.7,��
2018/02/07,22:10,0.336,0.204,0.334,0.317,0.302,0.167,0.100,���k��,5.2,��
2018/02/07,22:20,0.337,0.204,0.334,0.317,0.303,0.168,0.101,�k��,3.2,��
2018/02/07,22:30,0.337,0.204,0.334,0.318,0.302,0.168,0.100,�k�k��,1.8,��
2018/02/07,22:40,0.336,0.204,0.335,0.317,0.301,0.169,0.100,�k,2.7,��
2018/02/07,22:50,0.336,0.202,0.336,0.318,0.304,0.168,0.100,�k�k��,3.7,��
2018/02/07,23:00,0.335,0.203,0.334,0.317,0.302,0.167,0.101,�k��,4.2,��
2018/02/07,23:10,0.336,0.203,0.334,0.318,0.302,0.168,0.100,���k��,4.5,��
2018/02/07,23:20,0.336,0.204,0.334,0.317,0.302,0.168,0.101,���k��,4.3,��
2018/02/07,23:30,0.337,0.203,0.334,0.317,0.301,0.167,0.101,���k��,4.6,��
2018/02/07,23:40,0.337,0.203,0.333,0.318,0.301,0.167,0.100,���k��,5.0,��
2018/02/07,23:50,0.336,0.203,0.336,0.317,0.301,0.168,0.100,��,5.3,��
